TITAN 3C TRANSTAGE R/B, 3692

Orbit data source: Space-Track

TITAN 3C TRANSTAGE R/B, 3692 is space debris in GEO originally from a launch on Sun, 09 Feb 1969 UTC launched from the Air Force Eastern Test Range (AFETR). Debris objects in space refer to the collection of defunct objects orbiting the Earth. Examples of debris include non-operational satellites, rocket bodies, and fragments generated from explosions, collisions, or faulty payload assembly.

Loading next visibility...
Identifier
3692, 1969-013B
Orbit
GEO
Country
Flag of USUS
Related business
Manufacturer
Martin Marietta
Mission
Spacecraft
Bus & Motor
TRANSTAGE, Unknown motor
Mass
2,028 kg wet, 2,028 kg dry
Launch date (UTC)
1969-02-09 (57 years ago)
Launch vehicle
Unknown
Launch site
Air Force Eastern Test Range (AFETR)
Object type
Payload
Rocket body
Debris
Shape & HBR
Cyl + 2 Nozzle, 2.3 m
Radar Cross Section
14.974 m², Large (>1 m²)

Expand to show TLE details & history
Last TLE update: 13 hours ago

TLE from 13 hours ago
0 TITAN 3C TRANSTAGE R/B
1 03692U 69013B   25260.86069742 -.00000260  00000-0  00000-0 0  9995
2 03692   0.5924  73.3550 0168137  37.8098 156.5612  0.97536367 39662
Epoch: 2025-09-17T20:39Z
TLE epoch observation values (Epoch: 2025-09-17T20:39:24.257Z)
Latitude
-0.13192°
Longitude
-38.39721°
Altitude
37,232.616 km
Speed
3 km/s
True Right ascension
17h 53m 56s
True Declination
0° 07' 54"
Sunlit
Object was in daylight at epoch
Visualization orbit readout
Latitude
Unknown
Longitude
Unknown
Altitude
Unknown
Speed
Unknown
Apparent Right ascension
Unknown
Apparent Declination
Unknown
Sunlit
N/A
Visualization observer readout
Local Sidereal Time
02:57:39
Azimuth
Unknown
Elevation
Unknown
Doppler factor
Unknown
Orbital elements
Apogee altitude
37,294.507 km
Perigee altitude
35,850.194 km
Semi-major axis
42,950.487 km
Eccentricity
0.01681
Inclination
0.5924°
RAAN
73.355°
Arg. of periapsis
37.8098°
True anomaly
157.31305°
Mean anomaly
156.5612°
Eccentric anomaly
156.93856°
Mean motion
0.24383 °/min
Orbital period
1,476.43 mins
BSTAR
0
Loading maneuver chart data...
Computing Atmospheric mass density...

Documentation

Showing up to 5 results
|